EW6162 Weather Reports


Display with metric or nautical units.
time (UTC)temp
F
wind
direction
speed
MPH
gust
MPH
rain 1hr
in
rain 24hr
in
rain mn
in
humidity
%
barometer
mb
20260505063519 46 0.0 1.0 0.00 0.00 0.00 29 1012.1
20260505062519 46 0.0 1.0 0.00 0.00 0.00 28 1012.0
20260505061519 46 203 1.0 2.0 0.00 0.00 0.00 34 1012.0
20260505060519 46 0.0 1.0 0.00 0.00 0.00 35 1011.8
20260505055542 47 0.0 2.0 0.00 0.00 0.00 34 1011.9
20260505054519 47 0.0 2.0 0.00 0.00 0.00 36 1011.9
20260505053521 47 0.0 2.0 0.00 0.00 0.00 39 1011.7
20260505052521 47 0.0 1.0 0.00 0.00 0.00 39 1011.7
20260505051521 48 0.0 1.0 0.00 0.00 0.00 41 1011.7
20260505050601 48 203 1.0 2.0 0.00 0.00 0.00 40 1011.8
20260505041520 49 203 1.0 1.0 0.00 0.00 0.00 42 1011.4
20260505040520 49 0.0 2.0 0.00 0.00 0.00 46 1011.3
20260505035520 49 0.0 0.0 0.00 0.00 0.00 53 1011.3
20260505034520 50 0.0 0.0 0.00 0.00 0.00 54 1011.5
20260505033540 50 0.0 1.0 0.00 0.00 0.00 55 1011.3
20260505031600 51 203 1.0 2.0 0.00 0.00 0.00 58 1011.4
20260505030520 52 0.0 1.0 0.00 0.00 0.00 61 1011.5
20260505025520 52 0.0 1.0 0.00 0.00 0.00 62 1011.5
20260505024520 53 0.0 0.0 0.00 0.00 0.00 63 1011.5
20260505023519 54 0.0 1.0 0.00 0.00 0.00 63 1011.5
20260505022520 54 203 1.0 2.0 0.00 0.00 0.00 65 1011.4
20260505021520 55 0.0 1.0 0.00 0.00 0.00 67 1011.4
20260505020519 56 0.0 0.0 0.00 0.00 0.00 69 1011.3
20260505015520 57 0.0 1.0 0.00 0.00 0.00 70 1011.2
20260505014520 58 0.0 0.0 0.00 0.00 0.00 70 1011.3
20260505013520 59 0.0 0.0 0.00 0.00 0.00 70 1011.2
20260505012519 60 0.0 1.0 0.00 0.00 0.00 70 1011.1
20260505011520 62 0.0 1.0 0.00 0.00 0.00 69 1011.2
20260505010542 63 0.0 1.0 0.00 0.00 0.00 67 1011.1
20260505005520 65 203 1.0 1.0 0.00 0.00 0.00 62 1011.0
20260505004521 66 0.0 0.0 0.00 0.00 0.00 61 1010.8
20260505003520 68 0.0 1.0 0.00 0.00 0.00 57 1010.9
20260505002519 70 0.0 1.0 0.00 0.00 0.00 53 1010.8
20260505001520 72 0.0 1.0 0.00 0.00 0.00 50 1010.9
20260505000520 73 225 1.0 2.0 0.00 0.00 0.00 48 1010.9
20260504235519 74 225 1.0 3.0 0.00 0.00 0.00 45 1010.7
20260504234519 74 225 2.0 4.0 0.00 0.00 0.00 44 1010.6
20260504233519 75 248 1.0 3.0 0.00 0.00 0.00 45 1010.6
20260504232559 75 248 2.0 4.0 0.00 0.00 0.00 44 1010.5
20260504231520 75 270 4.0 7.0 0.00 0.00 0.00 43 1010.6
20260504230520 75 270 4.0 10.0 0.00 0.00 0.00 44 1010.6
20260504225700 76 270 5.0 9.0 0.00 0.00 0.00 43 1010.6
20260504224519 76 270 3.0 6.0 0.00 0.00 0.00 43 1010.6
20260504223519 76 270 3.0 7.0 0.00 0.00 0.00 43 1010.6
20260504222520 76 270 7.0 14.0 0.00 0.00 0.00 42 1010.5
20260504221520 76 293 5.0 9.0 0.00 0.00 0.00 43 1010.7
20260504220519 77 270 7.0 12.0 0.00 0.00 0.00 43 1010.7
20260504215519 76 270 6.0 10.0 0.00 0.00 0.00 46 1010.7
20260504214519 77 225 3.0 9.0 0.00 0.00 0.00 44 1010.7
20260504213519 77 225 3.0 6.0 0.00 0.00 0.00 45 1010.7
20260504212521 76 270 4.0 9.0 0.00 0.00 0.00 46 1010.8
20260504211519 77 225 3.0 7.0 0.00 0.00 0.00 45 1010.8
20260504210519 77 203 5.0 10.0 0.00 0.00 0.00 41 1010.9
20260504205519 77 270 5.0 10.0 0.00 0.00 0.00 45 1011.1
20260504204519 77 293 5.0 9.0 0.00 0.00 0.00 46 1011.2
20260504203609 76 293 7.0 13.0 0.00 0.00 0.00 45 1011.2
20260504203021 76 180 5.0 9.0 0.00 0.00 0.00 46 1011.4
20260504202019 75 270 5.0 9.0 0.00 0.00 0.00 49 1011.4
20260504201019 75 270 5.0 10.0 0.00 0.00 0.00 50 1011.6
20260504200019 75 315 4.0 9.0 0.00 0.00 0.00 52 1011.7
20260504195019 74 270 5.0 12.0 0.00 0.00 0.00 49 1011.7
20260504194022 74 338 3.0 10.0 0.00 0.00 0.00 54 1012.1
20260504193021 74 248 3.0 7.0 0.00 0.00 0.00 50 1012.2
20260504192041 74 270 3.0 7.0 0.00 0.00 0.00 53 1012.5
20260504191021 74 0 2.0 5.0 0.00 0.00 0.00 53 1012.7
20260504190019 73 315 2.0 9.0 0.00 0.00 0.00 55 1012.9
20260504185021 72 293 4.0 7.0 0.00 0.00 0.00 54 1013.0
20260504184021 72 270 3.0 6.0 0.00 0.00 0.00 53 1013.2
20260504183039 72 158 2.0 4.0 0.00 0.00 0.00 51 1013.3
20260504182020 71 293 4.0 10.0 0.00 0.00 0.00 52 1013.4
20260504181020 71 293 3.0 8.0 0.00 0.00 0.00 54 1013.4
20260504180159 72 270 6.0 9.0 0.00 0.00 0.00 53 1013.6
20260504180143 71 277 6.0 9.0 0.00 0.00 0.00 53 1013.3
20260504175041 71 203 3.0 9.0 0.00 0.00 0.00 54 1013.9
20260504174021 70 293 3.0 8.0 0.00 0.00 0.00 54 1013.9
20260504173020 70 135 2.0 5.0 0.00 0.00 0.00 55 1014.0
20260504172020 69 113 3.0 5.0 0.00 0.00 0.00 55 1014.1
20260504171019 69 270 3.0 7.0 0.00 0.00 0.00 55 1014.3
20260504151021 60 45 4.0 9.0 0.00 0.00 0.00 64 1016.5
20260504141020 55 68 5.0 10.0 0.00 0.00 0.00 68 1017.0
20260504081020 36 338 1.0 2.0 0.00 0.00 0.00 31 1015.6
20260504080522 36 0.0 1.0 0.00 0.00 0.00 31 1015.6